www.pogodaiklimat.ru

Погода и климат >> Архив погоды >> Индонезия >> Лувук


ПОГОДА в Лувуке

  • Прогноз погоды в Лувуке
  • Монитор погоды в Лувуке

АРХИВ ПОГОДЫ в Лувуке

Время (UTC), дата Ветер
(напр.,м/с)
 
Видим.   Явления Облачность Т
(С)
Тd
(С)
f
(%)
Тe
(С)
Тes
(С)
Комфортность P
(гПа)
Po
(гПа)
Тmin
(С)
Tmax
(С)
R
(мм)
R24
(мм)
S
(см)
15 13.06 ЮЗ 2 10 км 5/3 600 м
[Cu med, cong Ac As Ci fib]
+26.4 +23.7 85 +36 +36 очень
душно
1011.3 1009.2
18 13.06 ЮЗ 3 9000 м 9/4 570 м
[Sc diur, vesp Ac As Ci fib]
+25.9 +24.2 90 +36 +36 очень
душно
1009.9 1007.8
21 13.06 З 3 10 км 9/4 570 м
[Sc diur, vesp Ac As Ci fib]
+26.9 +22.7 78 +36 +36 очень
душно
1009.3 1007.2
00 14.06 СВ 1 10 км 8/3 600 м
[Cu med, cong Ac As Ci fib]
+27.9 +24.0 79 +39 +42 очень
душно
1011.3 1009.2 +25.4
03 14.06 Ю 2 10 км 8/3 600 м
[Cu med, cong Ac As Ci fib]
+29.3 +25.1 78 +42 +50 опасность
перегрева
1010.3 1008.2
06 14.06 ЮЗ 2 3000 м слаб. дождь 10/6 500 м
[Sc diur, vesp Ac As]
+26.2 +24.8 92 +37 +39 очень
душно
1008.7 1006.6 3
09 14.06 ЮЗ 1 4000 м слаб. дождь 10/6 500 м
[Cu med, cong Ac As]
+25.3 +24.4 95 +35 +35 очень
душно
1008.8 1006.7 8
12 14.06 СЗ 1 6000 м слаб. дождь 10/5 500 м
[Sc diur, vesp As op]
+25.5 +23.3 88 +34 +34 очень
душно
1010.6 1008.5 +30.4 5
15 14.06 З 1 6000 м слаб. дождь 10/5 540 м
[Sc diur, vesp As op]
+24.4 +23.8 96 +33 +33 очень
душно
1011.5 1009.4 16
18 14.06 З 1 8000 м {дождь} 9/4 600 м
[Sc As op Ci fib]
+25.0 +23.7 93 +34 +34 очень
душно
1010.0 1007.9 0.2
21 14.06 З 2 7000 м слаб. дождь 10/5 450 м
[Sc diur, vesp As op]
+24.2 +22.7 91 +32 +32 очень
душно
1010.2 1008.1 4
00 15.06 штиль 0 3000 м слаб. дождь 10/6 500 м
[Sc diur, vesp Ac As]
+24.7 +23.8 95 +34 +35 очень
душно
1012.0 1009.9 +23.8 39
03 15.06 ЮЗ 1 1000 м дождь 10/6 90 м
[Sc diur, vesp Ac As]
+23.8 +22.9 95 +32 +34 очень
душно
1012.6 1010.5 23
06 15.06 Ю 2 7000 м слаб. дождь 10/5 500 м
[Sc diur, vesp Ac As]
+26.0 +24.3 90 +36 +38 очень
душно
1010.8 1008.7 9
09 15.06 ЮЗ 1 7000 м слаб. дождь 10/4 500 м
[Sc diur, vesp Ac As]
+24.2 +23.0 93 +32 +32 очень
душно
1010.8 1008.7 5
12 15.06 З 2 9000 м {дождь} 9/4 570 м
[Sc Ac As Ci fib]
+24.6 +22.7 89 +32 +32 очень
душно
1012.8 1010.7 +26.1 1
15 15.06 З 2 10 км 9/4 540 м
[Cu med, cong Ac As Ci fib]
+25.6 +22.1 81 +33 +33 очень
душно
1013.2 1011.1
18 15.06 З 2 9000 м слаб. дождь 9/4 540 м
[Cu med, cong Ac As Ci fib]
+24.2 +21.2 83 +31 +31 очень
душно
1011.9 1009.8 2
21 15.06 СЗ 3 9000 м {дождь} 9/4 540 м
[Cu med, cong Ac As Ci fib]
+24.8 +19.9 74 +30 +30 душно 1011.1 1009.0 2
00 16.06 ЮЗ 2 10 км 9/5 570 м
[Sc diur, vesp Ac As Ci fib]
+27.4 +21.3 69 +35 +36 очень
душно
1012.8 1010.7 +23.7 41
03 16.06 ЮЗ 3 10 км 8/4 570 м
[Sc diur, vesp Ac As Ci fib]
+29.8 +23.0 67 +40 +46 очень
душно
1012.1 1010.0
06 16.06 ЮЗ 2 10 км 6/3 600 м
[Cu med, cong Ac lent Ci fib]
+30.3 +23.4 67 +41 +48 опасность
перегрева
1009.7 1007.6
09 16.06 ЮЗ 3 10 км 5/3 600 м
[Cu med, cong Ac As Ci fib]
+28.1 +23.6 77 +39 +39 очень
душно
1009.7 1007.6
12 16.06 З 1 10 км осадки на расстоянии 9/4 570 м
[Cb calv Ac As Ci fib]
+26.9 +23.4 81 +36 +36 очень
душно
1011.6 1009.5 +30.4
15 16.06 З 2 7000 м слаб. дождь 10/6 500 м
[Sc diur, vesp Ac As]
+25.4 +24.0 92 +35 +35 очень
душно
1012.5 1010.4 2
18 16.06 З 2 8000 м {дождь} 9/4 570 м
[Cu med, cong Ac As]
+26.2 +22.8 82 +35 +35 очень
душно
1011.3 1009.2 0.0
21 16.06 З 1 10 км 9/4 600 м
[Sc diur, vesp Ac As Ci fib]
+25.4 +23.2 88 +34 +34 очень
душно
1011.0 1008.9
00 17.06 З 2 7000 м слаб. дождь 10/5 450 м
[Sc diur, vesp As op]
+24.1 +22.8 92 +32 +32 очень
душно
1013.6 1011.5 +24.6 6
03 17.06 ЮЗ 2 3000 м слаб. дождь 10/5 450 м
[St As op]
+24.3 +23.0 92 +32 +34 очень
душно
1013.7 1011.6 5
06 17.06 ЮЗ 2 7000 м слаб. дождь 9/5 500 м
[Cu med, cong Ac As]
+25.6 +23.4 88 +35 +38 очень
душно
1011.8 1009.7 8
09 17.06 СЗ 2 9000 м осадки на расстоянии 9/5 500 м
[Cu med, cong Ac As]
+26.4 +22.4 79 +35 +35 очень
душно
1011.4 1009.3 0.0
12 17.06 СЗ 3 10 км 5/3 600 м
[Cu hum Ac As Ci fib]
+25.9 +21.6 77 +33 +33 очень
душно
1013.1 1011.0 +26.6
15 17.06 З 2 10 км 9/3 570 м
[Cu hum Ac As Ci fib]
+26.5 +20.8 71 +33 +33 очень
душно
1013.1 1011.0
18 17.06 З 2 9000 м 9/4 570 м
[Sc diur, vesp Ac und Ci fib]
+26.2 +21.0 73 +33 +33 очень
душно
1011.8 1009.7
21 17.06 СЗ 2 9000 м 8/4 570 м
[Sc diur, vesp Ac und Ci fib]
+24.2 +20.4 79 +30 +30 очень
душно
1011.7 1009.6
00 18.06 ЮЗ 1 10 км 6/3 600 м
[Cu med, cong Ac As Ci fib]
+28.4 +21.1 65 +36 +40 очень
душно
1013.0 1010.9 +24.1 14
03 18.06 Ю 2 9000 м 9/4 600 м
[Cu med, cong Ac As Ci fib]
+27.3 +23.7 81 +37 +44 очень
душно
1012.2 1010.1
06 18.06 ЮЗ 1 9000 м осадки на расстоянии 10/5 500 м
[Cu med, cong Ac As]
+28.1 +22.6 72 +37 +39 очень
душно
1010.1 1008.0
09 18.06 СЗ 3 10 км осадки на расстоянии 9/5 570 м
[Sc diur, vesp Ac As]
+25.9 +21.1 75 +33 +33 очень
душно
1010.1 1008.0 1
12 18.06 СЗ 2 8000 м {дождь} 9/4 570 м
[Cu med, cong Ac As Ci fib]
+25.9 +21.6 77 +33 +33 очень
душно
1011.8 1009.7 +28.9 1
15 18.06 З 1 10 км 6/3 600 м
[Sc Ac As Ci fib]
+25.4 +21.8 80 +33 +33 очень
душно
1012.1 1010.0
18 18.06 ЮЗ 1 10 км 8/3 600 м
[Sc Ac As Ci fib]
+25.9 +21.7 78 +33 +33 очень
душно
1010.5 1008.4
21 18.06 СЗ 1 10 км 8/3 600 м
[Sc Ac und Ci fib]
+25.2 +21.9 82 +32 +32 очень
душно
1010.4 1008.3
00 19.06 В 1 10 км 9/5 570 м
[Cu med, cong Ac As]
+27.2 +23.1 78 +36 +38 очень
душно
1011.9 1009.8 +24.8 1
03 19.06 Ю 2 10 км {дождь} 10/5 500 м
[Cu med, cong Ac As]
+27.4 +23.7 80 +37 +40 очень
душно
1011.3 1009.2 0.0
06 19.06 Ю 2 6000 м слаб. дождь 10/6 500 м
[Cu med, cong Ac As]
+26.2 +24.2 89 +36 +38 очень
душно
1009.5 1007.4 0.0
09 19.06 Ю 1 10 км {дождь} 9/4 500 м
[Cu med, cong Ac As Ci fib]
+25.8 +23.8 89 +35 +36 очень
душно
1009.4 1007.3
12 19.06 штиль 0 4000 м слаб. дождь 9/5 500 м
[Sc diur, vesp Ac As]
+24.2 +23.2 94 +32 +32 очень
душно
1011.1 1009.0 +28.5 3
15 19.06 штиль 0 4000 м слаб. дождь 10/6 500 м
[Sc diur, vesp As op]
+23.7 +22.7 94 +31 +31 очень
душно
1011.9 1009.8 39
18 19.06 З 1 4000 м слаб. дождь 10/6 500 м
[Sc diur, vesp As op]
+23.5 +22.3 93 +31 +31 очень
душно
1010.7 1008.6 4
21 19.06 СЗ 1 2000 м слаб. дождь 10/6 500 м
[Sc diur, vesp As op]
+23.9 +22.3 91 +31 +31 очень
душно
1011.1 1009.0 4
00 20.06 ЮЗ 2 5000 м слаб. дождь 10/5 570 м
[Sc diur, vesp As trans]
+24.2 +22.9 92 +32 +33 очень
душно
1013.0 1010.9 +23.4 2
03 20.06 ЮЗ 3 7000 м слаб. дождь 10/5 540 м
[Sc diur, vesp Ac As]
+25.9 +24.2 90 +36 +38 очень
душно
1012.2 1010.1 2
06 20.06 З 4 9000 м 9/4 570 м
[Sc diur, vesp Ac As Ci fib]
+27.0 +23.1 79 +36 +40 очень
душно
1010.2 1008.1 0.0
09 20.06 З 4 8000 м {дождь} 9/4 570 м
[Sc diur, vesp Ac As Ci fib]
+24.8 +23.0 90 +33 +33 очень
душно
1010.5 1008.4 4
12 20.06 З 2 2000 м дождь 10/6 480 м
[Sc diur, vesp Ac As]
+24.1 +22.9 93 +32 +32 очень
душно
1012.5 1010.4 +27.1 6

 

Местоположение метеостанции Лувук (Индонезия): широта -0.90 долгота 122.78 высота над уровнем моря 2 м.

В архиве по умолчанию представлена погода в Лувуке за последнюю неделю. Архивные данные за месяц целиком и за предыдущие месяцы, начиная с января 2011 года, Вы можете получить, выбрав интересующий диапазон дат из раскрывающегося списка и нажав кнопку "Ввод!".


*Определитесь, кто Вы:
робот инопланетянин человек

Внимание! Время в таблицах - всемирное. Для получения местного времени необходимо прибавить поправку, которая равна 8 ч.

Смотрите также архив погоды в соседних городах и на ближайших метеорологических станциях:

Погода в Горонтало (Индонезия) (161 км)
Погода в Посо (Индонезия) (234 км)
Погода в Толи-Толи (Индонезия) (307 км)
Погода в Масамбе (Индонезия) (326 км)
Погода в Палу (Индонезия) (340 км)
Погода в Кендари (Индонезия) (358 км)
Погода в Менадо (Индонезия) (359 км)
Погода в Битунге (Индонезия) (372 км)
Погода на Санане (Индонезия) (381 км)
Погода в Колаке (Индонезия) (403 км)

Пояснения к столбцам:

Ветер - указаны скорость ветра в м/с - средняя за 10 мин, порывы в срок и между сроками (в фигурных скобках) и направление, откуда дует ветер: С - северный, СВ - северо-восточный, В - восточный, ЮВ - юго-восточный, Ю - южный, ЮЗ - юго-западный, З - западный, СЗ - северо-западный.
Видимость - горизонтальная дальность видимости в метрах или километрах. При видимости от 1 до 10 км при отсутствии осадков обычно наблюдается дымка, при ухудшении видимости до 1 км и менее - туман. В сухую погоду видимость может ухудшаться дымом, пылью или мглою.
Явления - указаны атмосферные явления, наблюдавшиеся в срок или в последний час перед сроком; фигурными скобками обозначены явления, наблюдавшиеся между сроками (за 1-3 часа до срока); квадратными скобками обозначены град или гололедные отложения с указанием их диаметра в мм.
Облачность - указаны через наклонную черту общая и нижняя облачность в баллах и высота нижней границы облаков в метрах; квадратными скобками обозначены формы облаков: Ci - перистые, Cs - перисто-слоистые, Cc - перисто-кучевые, Ac - высококучевые, As - высокослоистые, Sc - слоисто-кучевые, Ns - слоисто-дождевые, Cu - кучевые, Cb - кучево-дождевые. Подробнее классификацию облаков см. в Атласе облаков (PDF).
T - Температура воздуха - температура, измеренная на высоте 2 м над землей.
Td - Температура точки росы - температура, при понижении до которой содержащийся в воздухе водяной пар достигнет насыщения.
f - Относительная влажность воздуха - влажноcть воздуха, измеренная на высоте 2 м над землей.
Te - Эффективная температура - температура, которую ощущает одетый по сезону человек в тени. Характеристика душности погоды. При расчете учитывается влияние влажности воздуха и скорости ветра на теплоощущения человека.
Tes - Эффективная температура на солнце - температура, которую ощущает человек, с поправкой на солнечный нагрев. Характеристика знойности погоды. Зависит от высоты солнца над горизонтом, облачности и скорости ветра. Ночью, в пасмурную погоду, а также при ветре 12 м/с и более поправка равна нулю.
P - Атмосферное давление - приведенное к уровню моря атмосферное давление.
Po - Атмосферное давление - измеренное на уровне метеостанции атмосферное давление.
Tmin - Минимальная температура - минимум температуры воздуха на высоте 2 м над землей.
Tmax - Максимальная температура - максимум температуры воздуха на высоте 2 м над землей.
R - Количество осадков - Количество выпавших осадков за период времени, мм. При наведении курсора мыши на число - период времени, за который выпало указанное количество осадков.
R24 - Количество осадков - Количество выпавших осадков за 24 часа, мм.
S - Снежный покров - Высота снежного покрова, см. При наведении курсора мыши на число - состояние снежного покрова и степень покрытия местности в баллах.